�N����,����,�~����,�C��,���x,�C��,����,���ϕ���,�ő�u�ԕ���,�ő厞����,���˗�,�I�_���x,�n�����x,�ő啗���N��,DTYPE
"23/02/07","00:10",0.0,5.6,79.4,1014.5,322.6,3.5,4.9,315.8,0.00,2.4,6.7,"00:07:00",1
"23/02/07","00:20",0.0,5.7,79.1,1014.2,320.1,4.0,5.7,318.2,0.00,2.4,6.7,"00:15:24",1
"23/02/07","00:30",0.0,5.7,78.9,1014.2,326.1,3.4,4.9,337.2,0.00,2.4,6.7,"00:20:24",1
"23/02/07","00:40",0.0,5.7,78.9,1014.2,327.3,3.6,5.2,325.3,0.00,2.4,6.8,"00:35:18",1
"23/02/07","00:50",0.0,5.8,78.8,1014.0,312.6,3.7,5.6,323.0,0.00,2.4,6.7,"00:45:32",1
"23/02/07","01:00",0.0,5.8,78.6,1014.0,326.6,3.7,5.7,317.0,0.00,2.4,6.7,"00:53:12",1
"23/02/07","01:10",0.0,5.9,78.7,1014.2,321.4,3.6,5.1,312.2,0.00,2.5,6.5,"01:06:02",1
"23/02/07","01:20",0.0,5.8,78.8,1014.2,331.5,3.7,6.7,335.7,0.00,2.4,6.9,"01:18:08",1
"23/02/07","01:30",0.0,5.9,78.9,1014.2,326.0,4.4,6.3,326.0,0.00,2.6,6.7,"01:25:46",1
"23/02/07","01:40",0.0,5.7,78.9,1014.5,327.1,4.0,6.0,319.3,0.00,2.4,6.6,"01:33:08",1
"23/02/07","01:50",0.0,5.7,79.3,1014.0,324.1,3.7,5.6,311.9,0.00,2.4,6.6,"01:48:46",1
"23/02/07","02:00",0.0,5.8,79.3,1014.5,324.2,4.6,6.6,330.8,0.00,2.5,6.8,"01:57:36",1
"23/02/07","02:10",0.0,5.7,79.4,1014.5,325.2,4.2,6.3,346.7,0.00,2.5,6.6,"02:02:40",1
"23/02/07","02:20",0.0,5.4,79.7,1014.2,336.8,3.1,4.3,342.1,0.00,2.2,6.7,"02:15:42",1
"23/02/07","02:30",0.0,5.4,80.1,1014.7,331.7,3.4,5.7,338.5,0.00,2.3,6.5,"02:23:52",1
"23/02/07","02:40",0.0,5.5,80.2,1014.5,334.4,3.2,4.3,341.9,0.00,2.4,6.9,"02:33:44",1
"23/02/07","02:50",0.0,5.4,80.4,1014.5,322.0,2.6,4.0,335.2,0.00,2.3,6.5,"02:44:24",1
"23/02/07","03:00",0.0,5.3,80.7,1014.2,332.1,3.0,4.4,310.2,0.00,2.3,6.6,"02:54:36",1
"23/02/07","03:10",0.0,5.1,81.1,1014.0,327.9,2.3,3.2,320.9,0.00,2.2,6.6,"03:01:54",1
"23/02/07","03:20",0.0,5.0,81.5,1014.5,322.5,3.0,4.1,313.5,0.00,2.1,6.7,"03:16:24",1
"23/02/07","03:30",0.0,5.0,81.9,1014.5,326.1,2.8,3.9,317.5,0.00,2.2,6.6,"03:28:44",1
"23/02/07","03:40",0.0,5.0,82.0,1014.5,332.5,3.1,4.5,338.6,0.00,2.2,6.6,"03:34:34",1
"23/02/07","03:50",0.0,5.0,82.2,1014.5,326.1,2.7,3.7,320.7,0.00,2.3,6.6,"03:45:04",1
"23/02/07","04:00",0.0,5.2,82.3,1014.5,330.1,3.5,5.1,342.8,0.00,2.5,6.6,"03:57:58",1
"23/02/07","04:10",0.0,5.4,81.9,1014.2,329.5,3.9,5.8,339.4,0.00,2.6,6.6,"04:03:12",1
"23/02/07","04:20",0.0,5.5,81.4,1014.5,327.6,3.7,6.7,320.5,0.00,2.6,6.4,"04:17:44",1
"23/02/07","04:30",0.0,5.5,80.9,1015.2,322.3,4.0,5.9,327.0,0.00,2.5,6.6,"04:27:08",1
"23/02/07","04:40",0.0,5.5,80.5,1015.2,322.3,4.0,6.4,348.0,0.00,2.5,6.6,"04:30:32",1
"23/02/07","04:50",0.0,5.6,80.2,1015.4,321.6,4.1,6.8,321.7,0.00,2.5,6.4,"04:40:20",1
"23/02/07","05:00",0.0,5.6,80.1,1015.4,331.8,4.5,7.0,330.1,0.00,2.5,6.5,"04:58:50",1
"23/02/07","05:10",0.0,5.7,79.8,1015.4,327.1,4.0,5.5,324.5,0.00,2.5,6.4,"05:01:08",1
"23/02/07","05:20",0.0,5.6,79.8,1015.4,322.3,4.4,5.9,334.0,0.00,2.4,6.5,"05:14:34",1
"23/02/07","05:30",0.0,5.5,80.0,1015.4,316.2,3.9,5.8,303.8,0.00,2.4,6.4,"05:22:08",1
"23/02/07","05:40",0.0,5.3,80.6,1014.9,321.5,4.0,5.8,317.5,0.00,2.3,6.3,"05:31:10",1
"23/02/07","05:50",0.0,5.3,80.9,1015.4,329.4,3.5,4.9,327.9,0.00,2.3,6.6,"05:44:10",1
"23/02/07","06:00",0.0,5.4,81.0,1015.4,335.1,2.7,4.3,336.6,0.00,2.4,6.6,"05:53:38",1
"23/02/07","06:10",0.0,5.4,81.0,1015.2,324.7,2.1,3.5,330.0,0.00,2.4,6.4,"06:02:56",1
"23/02/07","06:20",0.0,5.4,81.0,1015.2,329.1,1.3,2.2,334.3,0.00,2.4,6.3,"06:19:22",1
"23/02/07","06:30",0.0,5.3,81.3,1015.2,332.3,2.3,3.5,336.0,0.00,2.4,6.5,"06:26:12",1
"23/02/07","06:40",0.0,5.3,81.8,1015.2,306.0,2.3,3.3,301.0,0.00,2.5,6.4,"06:37:58",1
"23/02/07","06:50",0.0,5.4,81.9,1015.2,282.4,2.5,3.2,302.3,0.00,2.6,6.6,"06:49:44",1
"23/02/07","07:00",0.0,5.3,82.0,1015.2,297.4,2.1,2.9,292.3,0.00,2.5,6.5,"06:50:24",1
"23/02/07","07:10",0.0,5.3,82.1,1015.4,284.1,1.6,2.2,259.3,0.00,2.5,6.4,"07:00:10",1
"23/02/07","07:20",0.0,5.2,82.4,1015.2,311.1,2.0,2.8,326.1,0.00,2.5,6.5,"07:13:42",1
"23/02/07","07:30",0.0,5.0,83.2,1014.7,322.8,2.0,2.6,325.1,0.00,2.4,6.3,"07:23:34",1
"23/02/07","07:40",0.0,4.9,83.9,1014.9,302.7,1.8,2.5,308.5,0.00,2.5,6.4,"07:32:12",1
"23/02/07","07:50",0.0,4.9,84.4,1014.7,296.2,1.6,2.0,296.7,0.00,2.5,6.3,"07:49:38",1
"23/02/07","08:00",0.0,5.1,84.8,1014.9,312.0,2.0,2.6,323.4,0.00,2.8,6.3,"07:57:12",1
"23/02/07","08:10",0.0,5.2,84.9,1014.9,308.3,2.5,3.7,329.5,0.00,2.9,6.2,"08:03:52",1
"23/02/07","08:20",0.0,5.5,84.6,1014.2,316.1,3.1,4.4,319.5,0.00,3.2,6.3,"08:12:54",1
"23/02/07","08:30",0.0,5.7,84.1,1014.7,298.1,2.3,3.4,319.7,0.01,3.3,6.5,"08:23:04",1
"23/02/07","08:40",0.0,5.9,83.5,1014.7,315.0,2.6,3.3,326.6,0.02,3.4,6.4,"08:32:24",1
"23/02/07","08:50",0.0,6.1,82.9,1014.9,303.2,2.0,2.8,322.9,0.02,3.5,6.3,"08:41:04",1
"23/02/07","09:00",0.0,6.4,82.2,1014.7,300.7,1.5,2.6,318.4,0.02,3.6,6.5,"08:51:52",1
"23/02/07","09:10",0.0,6.5,81.5,1014.7,306.2,1.8,2.6,320.2,0.02,3.6,6.4,"09:07:12",1
"23/02/07","09:20",0.0,6.6,81.0,1014.9,312.4,2.1,2.8,318.9,0.03,3.6,6.3,"09:10:32",1
"23/02/07","09:30",0.0,6.7,80.4,1014.5,309.7,2.2,3.1,323.6,0.04,3.6,6.3,"09:26:08",1
"23/02/07","09:40",0.0,6.9,79.6,1014.5,309.7,2.1,3.1,313.0,0.05,3.7,6.4,"09:32:16",1
"23/02/07","09:50",0.0,7.2,78.8,1014.7,320.9,2.2,3.1,323.3,0.07,3.8,6.2,"09:44:16",1
"23/02/07","10:00",0.0,7.4,77.7,1014.7,296.2,2.2,3.6,322.6,0.07,3.8,6.6,"09:51:36",1
"23/02/07","10:10",0.0,7.4,76.9,1014.7,281.5,2.3,3.9,320.4,0.05,3.7,6.4,"10:03:36",1
"23/02/07","10:20",0.0,7.5,76.0,1014.7,290.7,2.2,3.2,266.8,0.08,3.6,6.5,"10:10:56",1
"23/02/07","10:30",0.0,7.7,75.1,1014.7,302.0,2.3,3.4,304.6,0.09,3.6,6.4,"10:23:20",1
"23/02/07","10:40",0.0,8.2,74.4,1014.0,325.2,2.3,3.3,323.4,0.13,4.0,6.5,"10:36:08",1
"23/02/07","10:50",0.0,8.7,72.9,1014.2,296.6,2.5,3.4,332.4,0.23,4.2,6.5,"10:41:28",1
"23/02/07","11:00",0.0,9.6,70.9,1014.2,298.3,2.0,2.9,300.8,0.30,4.6,6.5,"10:51:04",1
"23/02/07","11:10",0.0,10.3,69.2,1013.8,314.2,1.5,2.8,326.3,0.28,4.9,6.6,"11:07:10",1
"23/02/07","11:20",0.0,10.5,65.7,1014.0,243.1,1.6,2.7,243.6,0.26,4.4,6.5,"11:16:24",1
"23/02/07","11:30",0.0,11.2,63.6,1014.0,230.8,1.1,2.9,231.1,0.29,4.6,6.5,"11:27:08",1
"23/02/07","11:40",0.0,11.6,61.3,1013.8,194.9,0.8,1.6,126.1,0.28,4.5,6.8,"11:34:32",1
"23/02/07","11:50",0.0,12.1,56.7,1013.5,151.3,1.0,2.8,123.8,0.38,3.8,7.0,"11:43:20",1
"23/02/07","12:00",0.0,12.4,54.5,1013.0,319.2,1.3,2.5,345.0,0.30,3.5,6.8,"11:58:48",1
"23/02/07","12:10",0.0,12.7,53.2,1012.8,320.9,1.3,2.9,301.7,0.32,3.5,6.9,"12:02:08",1
"23/02/07","12:20",0.0,13.1,52.2,1012.6,297.6,1.2,2.2,244.5,0.33,3.6,6.9,"12:17:52",1
"23/02/07","12:30",0.0,13.6,51.2,1012.1,247.0,0.8,2.0,186.2,0.34,3.8,6.9,"12:23:36",1
"23/02/07","12:40",0.0,13.5,50.7,1011.9,239.8,1.5,2.4,198.2,0.33,3.5,6.9,"12:31:44",1
"23/02/07","12:50",0.0,13.5,51.3,1011.6,198.1,1.3,2.9,143.0,0.28,3.7,7.2,"12:40:48",1
"23/02/07","13:00",0.0,13.5,51.9,1011.4,229.0,1.5,2.8,240.6,0.26,3.9,7.4,"12:50:16",1
"23/02/07","13:10",0.0,13.8,49.5,1011.2,224.6,1.1,2.7,236.5,0.28,3.5,7.3,"13:08:24",1
"23/02/07","13:20",0.0,13.7,50.1,1010.9,255.4,1.3,2.5,262.4,0.27,3.5,7.3,"13:10:32",1
"23/02/07","13:30",0.0,14.4,47.9,1010.7,150.5,0.8,2.4,119.7,0.33,3.5,7.7,"13:24:08",1
"23/02/07","13:40",0.0,14.1,48.7,1010.4,182.4,1.1,2.7,112.3,0.24,3.5,7.7,"13:33:20",1
"23/02/07","13:50",0.0,14.0,48.1,1010.4,148.7,0.8,2.9,128.7,0.21,3.2,7.6,"13:43:12",1
"23/02/07","14:00",0.0,14.8,47.6,1010.0,264.2,0.8,2.1,196.8,0.31,3.8,7.8,"13:52:48",1
"23/02/07","14:10",0.0,14.9,46.8,1010.0,232.1,1.2,3.3,224.1,0.32,3.7,7.7,"14:06:32",1
"23/02/07","14:20",0.0,14.6,45.4,1010.2,183.3,1.1,3.6,218.1,0.19,3.0,7.9,"14:13:36",1
"23/02/07","14:30",0.0,14.6,45.6,1010.2,298.6,1.1,2.0,320.6,0.15,3.0,8.1,"14:24:48",1
"23/02/07","14:40",0.0,14.6,46.7,1010.2,254.8,1.2,2.2,243.2,0.15,3.4,8.2,"14:37:52",1
"23/02/07","14:50",0.0,14.3,44.5,1010.0,207.9,1.3,2.2,249.8,0.14,2.4,8.1,"14:40:16",1
"23/02/07","15:00",0.0,14.3,44.2,1010.4,224.3,0.8,2.7,248.2,0.11,2.3,8.2,"14:52:32",1
"23/02/07","15:10",0.0,14.6,45.3,1010.0,281.1,0.8,1.9,341.0,0.13,2.9,8.3,"15:02:48",1
"23/02/07","15:20",0.0,14.3,43.7,1010.0,261.1,1.6,2.7,302.3,0.10,2.2,8.3,"15:14:16",1
"23/02/07","15:30",0.0,14.3,43.7,1009.7,282.8,1.3,2.8,250.6,0.10,2.2,8.2,"15:20:02",1
"23/02/07","15:40",0.0,14.2,42.7,1010.0,248.6,1.5,2.6,238.7,0.10,1.8,8.4,"15:30:16",1
"23/02/07","15:50",0.0,14.2,42.6,1010.0,249.5,1.0,2.0,255.0,0.08,1.7,8.5,"15:43:00",1
"23/02/07","16:00",0.0,14.0,41.5,1010.2,262.5,1.5,2.6,246.7,0.06,1.2,8.5,"15:54:50",1
"23/02/07","16:10",0.0,14.1,44.8,1010.2,270.5,1.1,2.4,336.5,0.05,2.3,8.6,"16:05:56",1
"23/02/07","16:20",0.0,13.9,46.0,1010.4,301.4,1.8,3.1,320.2,0.06,2.5,8.5,"16:18:00",1
"23/02/07","16:30",0.0,13.8,46.0,1010.0,298.4,2.0,2.9,309.1,0.04,2.4,8.5,"16:21:54",1
"23/02/07","16:40",0.0,13.8,48.2,1010.0,288.0,1.2,1.9,258.7,0.04,3.1,8.7,"16:32:32",1
"23/02/07","16:50",0.0,13.7,51.9,1010.0,272.9,1.6,2.7,252.3,0.03,4.0,8.6,"16:43:30",1
"23/02/07","17:00",0.0,13.4,56.0,1010.0,296.9,2.3,3.9,253.5,0.02,4.8,8.6,"16:56:32",1
"23/02/07","17:10",0.0,13.0,59.1,1010.2,319.2,2.8,4.5,310.2,0.02,5.2,8.7,"17:06:04",1
"23/02/07","17:20",0.0,12.9,60.4,1010.4,313.4,2.8,4.3,332.3,0.00,5.5,8.7,"17:10:52",1
"23/02/07","17:30",0.0,12.7,62.0,1010.4,308.3,2.1,3.6,315.5,0.00,5.7,8.7,"17:23:56",1
"23/02/07","17:40",0.0,12.5,63.6,1010.2,320.8,2.2,4.3,338.5,0.00,5.8,8.6,"17:32:12",1
"23/02/07","17:50",0.0,12.3,64.7,1010.4,311.9,2.8,4.7,318.3,0.00,5.9,8.7,"17:47:10",1
"23/02/07","18:00",0.0,12.0,65.8,1010.7,319.4,2.8,5.2,331.8,0.00,5.8,8.7,"17:57:52",1
"23/02/07","18:10",0.0,11.8,66.4,1010.7,321.2,3.0,4.4,343.3,0.00,5.8,8.5,"18:08:28",1
"23/02/07","18:20",0.0,11.6,67.2,1010.7,314.5,3.0,4.1,333.7,0.00,5.8,8.5,"18:17:10",1
"23/02/07","18:30",0.0,11.5,68.3,1010.9,326.5,3.2,4.3,342.7,0.00,5.9,8.7,"18:26:36",1
"23/02/07","18:40",0.0,11.3,70.0,1010.7,303.6,2.8,4.2,322.5,0.00,6.1,8.7,"18:35:36",1
"23/02/07","18:50",0.0,11.1,71.1,1010.9,298.4,2.7,4.7,318.4,0.00,6.1,8.7,"18:44:12",1
"23/02/07","19:00",0.0,10.9,71.9,1011.2,311.5,3.1,5.0,325.8,0.00,6.1,8.7,"18:53:16",1
"23/02/07","19:10",0.0,10.7,72.5,1011.4,328.3,3.1,4.5,337.8,0.00,6.0,8.7,"19:08:40",1
"23/02/07","19:20",0.0,10.6,73.0,1011.6,328.3,3.0,4.8,345.2,0.00,6.0,8.7,"19:12:10",1
"23/02/07","19:30",0.0,10.5,73.2,1011.6,311.7,3.0,4.4,341.3,0.00,6.0,8.7,"19:29:32",1
"23/02/07","19:40",0.0,10.4,73.3,1011.9,317.3,3.0,4.0,318.8,0.00,5.9,8.6,"19:38:00",1
"23/02/07","19:50",0.0,10.3,73.4,1011.9,326.6,3.0,4.4,307.1,0.00,5.8,8.6,"19:46:58",1
"23/02/07","20:00",0.0,10.3,73.3,1011.9,318.7,3.1,4.2,319.6,0.00,5.8,8.6,"19:50:16",1
"23/02/07","20:10",0.0,10.2,73.3,1011.9,333.1,2.8,4.7,341.4,0.00,5.7,8.5,"20:09:48",1
"23/02/07","20:20",0.0,10.1,73.6,1012.1,326.2,2.8,4.3,333.9,0.00,5.6,8.5,"20:14:00",1
"23/02/07","20:30",0.0,10.0,73.8,1012.8,323.0,3.0,4.2,334.9,0.00,5.6,8.5,"20:20:40",1
"23/02/07","20:40",0.0,9.9,73.9,1012.1,311.3,3.0,4.1,301.3,0.00,5.5,8.5,"20:37:04",1
"23/02/07","20:50",0.0,9.8,73.9,1012.1,324.2,2.8,4.2,318.0,0.00,5.4,8.7,"20:40:08",1
"23/02/07","21:00",0.0,9.6,73.6,1011.9,327.4,2.2,3.2,313.8,0.00,5.2,8.6,"20:57:52",1
"23/02/07","21:10",0.0,9.6,72.5,1012.1,316.3,3.0,5.0,310.4,0.00,4.9,8.6,"21:05:04",1
"23/02/07","21:20",0.0,9.6,71.6,1012.3,325.7,2.5,3.5,340.0,0.00,4.8,8.4,"21:15:36",1
"23/02/07","21:30",0.0,9.6,71.0,1012.3,334.3,2.0,3.1,336.9,0.00,4.6,8.5,"21:28:24",1
"23/02/07","21:40",0.0,9.5,71.0,1011.9,309.4,1.6,3.3,323.0,0.00,4.5,8.4,"21:33:36",1
"23/02/07","21:50",0.0,9.4,71.5,1012.3,325.3,1.5,2.4,335.6,0.00,4.6,8.3,"21:43:36",1
"23/02/07","22:00",0.0,9.2,72.1,1012.1,315.0,1.8,2.7,304.7,0.00,4.5,8.6,"21:59:20",1
"23/02/07","22:10",0.0,9.3,72.6,1011.9,326.1,1.8,2.7,329.2,0.00,4.7,8.4,"22:08:40",1
"23/02/07","22:20",0.0,9.3,73.1,1012.1,327.4,2.3,3.5,311.3,0.00,4.8,8.2,"22:17:52",1
"23/02/07","22:30",0.0,9.4,73.3,1011.9,314.8,2.5,3.5,320.3,0.00,4.9,8.5,"22:21:12",1
"23/02/07","22:40",0.0,9.3,73.5,1011.9,308.6,2.1,2.7,317.9,0.00,4.9,8.6,"22:30:48",1
"23/02/07","22:50",0.0,9.2,73.8,1011.9,321.6,2.0,2.5,320.3,0.00,4.8,8.5,"22:41:44",1
"23/02/07","23:00",0.0,9.0,74.3,1012.1,313.4,2.0,2.1,325.9,0.00,4.7,8.3,"22:55:12",1
"23/02/07","23:10",0.0,8.9,74.8,1011.6,309.0,2.1,2.8,325.6,0.00,4.7,8.3,"23:06:56",1
"23/02/07","23:20",0.0,8.8,75.2,1011.6,321.7,2.0,2.9,317.5,0.00,4.7,8.5,"23:10:16",1
"23/02/07","23:30",0.0,8.6,75.8,1011.6,321.7,1.6,2.1,330.5,0.00,4.6,8.4,"23:29:12",1
"23/02/07","23:40",0.0,8.4,76.4,1011.2,319.5,1.2,2.2,343.7,0.00,4.5,8.4,"23:35:20",1
"23/02/07","23:50",0.0,8.2,77.3,1010.9,320.6,2.0,2.5,322.2,0.00,4.5,8.4,"23:46:56",1
"23/02/07","24:00",0.0,7.8,78.3,1011.2,327.6,2.3,2.9,322.9,0.00,4.3,8.3,"23:55:52",1
